loading
|

THOR AGENA B R/B, 741

Orbit data source: Space-Track

THOR AGENA B R/B, 741 is space debris in LEO originally from a launch on Sat, 25 Jan 1964 UTC launched from the Air Force Western Test Range (AFWTR). Debris objects in space refer to the collection of defunct objects orbiting the Earth. Examples of debris include non-operational satellites, rocket bodies, and fragments generated from explosions, collisions, or faulty payload assembly.

Loading next visibility...
Loading greatness...
THOR AGENA B R/B details
Identifier
741, 1964-004B
Orbit
LEO
Last TLE update23 hours ago
Origin
Flag of USGSFC (US)
ManufacturerLMSC
Mission statusUnknown
MissionUnknown
Bus & MotorAGENA B, Unknown motor
Mass~705 kg wet, 705 kg dry
Launch date (UTC)
1964-01-25 (61 years ago)
Launch vehicleUnknown
Launch site
Air Force Western Test Range (AFWTR)
Object type
Payload
Rocket body
Debris
Radar Cross Section4.3 m², Large (>1 m²)

Expand to show TLE details & history

TLE from 23 hours ago
0 THOR AGENA B R/B
1   741U 64004B   24250.78888385  .00000076  00000-0  14007-3 0  9992
2   741  81.4943 332.6219 0172373  45.9949  75.1954 13.23755217927748
Epoch: 2024-09-06T18:55Z
Definitive object data (Epoch: 2024-09-06T18:55:59.564Z)
Latitude56.03115°
Longitude-130.49161°
Altitude1,148.54 km
Speed7.299 km/s
True Right ascension09h 19m 27s
True Declination55° 52' 48"
Sunlit
Object was in daylight at TLE epoch
Predictive object data (real-time)
Latitude33.75575°
Longitude67.18637°
Altitude1,046.32 km
Speed7.394 km/s
Apparent Right ascension22h 22m 45s
Apparent Declination0° 10' 43"
Sunlit
Object is in full shadow
Predictive observer data (real-time)
Local Sidereal Time10:13:24
Azimuth356.375° N
Elevation-49.849°
Doppler factor1
Orbital elements
Apogee1,297.758 km
Perigee1,037.619 km
Semi-major axis7,545.826 km
Eccentricity0.0172373
Inclination81.4943°
RAAN332.6219°
Arg. of periapsis45.9949°
True anomaly77.11529°
Mean anomaly75.1954°
Eccentric anomaly76.15433°
Mean motion3.31118 °/min
BSTAR0.00014007
Period108.72 mins
No data available

THOR AGENA B R/B Visibility forecast

Observer location: 39.9160978°, -105.1181434

THOR AGENA B R/B is not visible in the next 10 days
Span
Click to sort rows by Start time (UTC) header in descending order
Start Az.
Max El. time (UTC)
Max El. Az.
Max El.
End time (UTC)
End Az.